User: anonymous   Login
Location: Unspecified
(0.0000°N, 0.0000°E)
Time: 12:21:23
(UTC+00:00)
Language:

Tsikada - Orbit

View from above orbital plane
View from above orbital plane
View from above satellite
View from above satellite

Ground track
Ground track

The orbit data is extracted from the following two-line orbital elements,

1 23463U 95002A   18347.85026185 +.00000026 +00000-0 +12004-4 0  9991
2 23463 082.9286 243.4502 0038405 193.7260 235.1106 13.72492272196264
Epoch (UTC): 13 December 2018 20:24:22
Eccentricity: 0.0038405
inclination: 82.9286°
perigee height: 962 km
apogee height: 1019 km
right ascension of ascending node: 243.4502°
argument of perigee: 193.7260°
revolutions per day: 13.72492272
mean anomaly at epoch: 235.1106°
orbit number at epoch: 19626

The dashed part of the orbit path shows where the satellite is in the earth's shadow,  

DLR